TimeEST,TemperatureF,Dew PointF,Humidity,Sea Level PressureIn,VisibilityMPH,Wind Direction,Wind SpeedMPH,Gust SpeedMPH,PrecipitationIn,Events,Conditions,WindDirDegrees,DateUTC
12:53 AM,71.1,63.0,75,29.92,10.0,SW,18.4,-,N/A,,Clear,220,2013-02-08 05:53:00
1:50 AM,71.6,62.6,73,29.94,10.0,WSW,13.8,19.6,N/A,,Scattered Clouds,250,2013-02-08 06:50:00
1:53 AM,71.1,63.0,75,29.93,10.0,WSW,13.8,-,N/A,,Mostly Cloudy,240,2013-02-08 06:53:00
2:53 AM,70.0,64.0,81,29.91,10.0,Calm,Calm,-,0.00,,Partly Cloudy,0,2013-02-08 07:53:00
3:53 AM,70.0,64.0,81,29.93,10.0,WSW,8.1,-,N/A,,Clear,250,2013-02-08 08:53:00
4:53 AM,68.0,64.0,87,29.92,10.0,WSW,6.9,-,N/A,,Clear,240,2013-02-08 09:53:00
5:53 AM,69.1,64.9,87,29.94,10.0,SW,9.2,-,N/A,,Clear,230,2013-02-08 10:53:00
6:53 AM,69.1,66.0,90,29.96,10.0,WSW,9.2,-,N/A,,Clear,240,2013-02-08 11:53:00
7:35 AM,69.8,66.2,88,29.97,10.0,West,5.8,-,N/A,,Partly Cloudy,260,2013-02-08 12:35:00
7:53 AM,70.0,66.9,90,29.98,10.0,WSW,6.9,-,N/A,,Partly Cloudy,250,2013-02-08 12:53:00
8:19 AM,71.6,68.0,88,30.01,10.0,WNW,5.8,-,N/A,,Mostly Cloudy,290,2013-02-08 13:19:00
8:53 AM,72.0,69.1,91,30.01,9.0,West,4.6,-,N/A,,Overcast,270,2013-02-08 13:53:00
9:09 AM,73.4,68.0,83,30.02,10.0,WNW,9.2,-,N/A,,Overcast,290,2013-02-08 14:09:00
9:53 AM,75.0,66.0,73,30.03,10.0,WNW,10.4,-,N/A,,Scattered Clouds,300,2013-02-08 14:53:00
10:05 AM,75.2,66.2,73,30.03,10.0,NNW,8.1,-,N/A,,Mostly Cloudy,330,2013-02-08 15:05:00
10:53 AM,75.9,66.0,71,30.03,10.0,NW,6.9,-,N/A,,Partly Cloudy,310,2013-02-08 15:53:00
11:53 AM,78.8,64.4,61,30.02,10.0,West,5.8,-,N/A,,Partly Cloudy,280,2013-02-08 16:53:00
12:53 PM,81.0,60.1,49,30.00,10.0,Variable,6.9,-,N/A,,Clear,0,2013-02-08 17:53:00
1:53 PM,82.9,57.0,41,29.99,10.0,WNW,10.4,-,N/A,,Clear,300,2013-02-08 18:53:00
2:53 PM,84.0,54.0,35,29.97,10.0,Variable,4.6,-,N/A,,Clear,0,2013-02-08 19:53:00
3:53 PM,82.0,50.0,33,29.97,10.0,West,9.2,-,N/A,,Clear,270,2013-02-08 20:53:00
4:53 PM,79.0,50.0,36,29.98,10.0,WNW,6.9,-,N/A,,Clear,290,2013-02-08 21:53:00
5:53 PM,75.0,50.0,41,29.99,10.0,West,5.8,-,N/A,,Clear,280,2013-02-08 22:53:00
6:53 PM,71.1,53.1,53,30.00,10.0,WNW,4.6,-,N/A,,Clear,300,2013-02-08 23:53:00
7:53 PM,68.0,59.0,73,30.01,10.0,NW,4.6,-,N/A,,Clear,310,2013-02-09 00:53:00
8:53 PM,66.9,59.0,76,30.04,10.0,NW,4.6,-,N/A,,Clear,320,2013-02-09 01:53:00
9:53 PM,66.0,60.1,81,30.06,10.0,NNW,5.8,-,N/A,,Clear,330,2013-02-09 02:53:00
10:53 PM,64.0,60.1,87,30.06,10.0,NNW,8.1,-,N/A,,Clear,340,2013-02-09 03:53:00
11:53 PM,62.1,59.0,90,30.06,10.0,North,6.9,-,N/A,,Clear,350,2013-02-09 04:53:00